Miscellaneous Local Product
Issued by NWS Hastings, NE

Home | Current Version | Previous Version | Graphics & Text | Print | Product List | Glossary On
Versions: 1 2 3 4 5 6 7 8 9 10 11 12 13 14 15 16 17 18 19 20 21 22 23 24 25 26 27 28 29 30 31 32 33 34 35 36 37 38 39 40 41 42 43 44 45 46 47 48 49 50
000
AXUS43 KGID 141602
MISGRI

GID CWA HOURLY WEATHER ROUNDUP
NATIONAL WEATHER SERVICE HASTINGS NE
1100 AM CDT SUN SEP 14 2014

NOTE: "FAIR" INDICATES FEW OR NO CLOUDS BELOW 12,000 FEET WITH NO
SIGNIFICANT WEATHER AND/OR OBSTRUCTIONS TO VISIBILITY.

...SOUTH CENTRAL NEBRASKA...

CITY           SKY/WX    TMP DP  RH WIND       PRES   REMARKS
GRAND ISLAND   MOSUNNY   60  49  66 CALM      30.19S
HASTINGS       SUNNY     60  49  66 S8        30.18R
KEARNEY        MOSUNNY   57  48  72 SE7       30.17S
ORD            MOSUNNY   54  45  71 E5        30.17F
YORK           SUNNY     59  52  77 S8        30.20S
AURORA         MOSUNNY   61  50  67 S3        30.18F
LEXINGTON      SUNNY     56  48  76 SE3       30.16S
HOLDREGE       SUNNY     59  49  68 CALM      30.16S
HEBRON         SUNNY     64  49  58 S9        30.20S

...NEBRASKA PANHANDLE...

CITY           SKY/WX    TMP DP  RH WIND       PRES   REMARKS
CHADRON        CLOUDY    48  40  73 CALM      30.14S
ALLIANCE       CLOUDY    50  46  86 SW7       30.12R
SCOTTSBLUFF    CLOUDY    48  47  96 CALM      30.11F FOG
SIDNEY         FOG       49  48  97 E7        30.11F VSB 1/4

...WESTERN AND NORTH CENTRAL NEBRASKA...

CITY           SKY/WX    TMP DP  RH WIND       PRES   REMARKS
VALENTINE      SUNNY     56  39  53 E13       30.17F
AINSWORTH      SUNNY     53  41  63 E14       30.16F
ONEILL         PTSUNNY   52  46  80 NE7       30.20R
BROKEN BOW     MOSUNNY   56  44  64 SE5       30.16F
IMPERIAL       SUNNY     55  48  77 SE6       30.13S
NORTH PLATTE   MOSUNNY   55  46  71 VRB6      30.15S
MCCOOK         SUNNY     57  48  72 VRB3      30.15S

...EASTERN NEBRASKA...

CITY           SKY/WX    TMP DP  RH WIND       PRES   REMARKS
NORFOLK        PTSUNNY   57  48  72 SE6       30.18F
SO SIOUX CITY  PTSUNNY   57  48  72 CALM      30.20S
TEKAMAH        MOSUNNY   62  49  62 SW3       30.21S
ALBION         MOSUNNY   55  45  68 CALM      30.19S
OMAHA EPPLEY   MOSUNNY   62  48  60 S7        30.22S
OFFUTT AFB     SUNNY     63  53  69 VRB5      30.21S
LINCOLN        SUNNY     64  49  57 SW9       30.22S
NEBRASKA CITY  SUNNY     63  44  49 S8        30.22F
BEATRICE       SUNNY     64  50  61 S12       30.22S
FALLS CITY     SUNNY     66  49  54 S9        30.22F

...NORTHERN KANSAS...

CITY           SKY/WX    TMP DP  RH WIND       PRES   REMARKS
GOODLAND       CLOUDY    52  52 100 E6        30.13S FOG
HILL CITY      SUNNY     61  50  67 S6        30.15S
NORTON         SUNNY     57  45  62 SE7       30.14S
PHILLIPSBURG   SUNNY     61  48  63 SE9       30.16S
SMITH CENTER   SUNNY     61  50  67 SE8       30.17F
BELOIT         SUNNY     63  54  72 SE8       30.17F
HAYS           SUNNY     61  52  72 S12       30.15F
RUSSELL        SUNNY     65  52  62 S16       30.15F
CONCORDIA      SUNNY     64  53  67 S13       30.19F
SALINA         SUNNY     67  54  63 S12       30.20F
TOPEKA         SUNNY     66  50  56 S6        30.24F



USA.gov is the U.S. government's official web portal to all federal, state and local government web resources and services.